This is the latest recevied weather packets stored in our database for station/object KC5CAM-13. If no packets are shown the sender has not sent any weather packets the latest 1 day(s).
| Time | Temp. | Humidity | Pressure | Rain* | Wind** | Luminosity | Snow |
|---|---|---|---|---|---|---|---|
| 1778002524 | 27.78° C | 70% | 1005.5 hPa | 0 mm | 1.79 m/s, 154° | 516 W/m² | - |
| 1778002221 | 27.22° C | 71% | 1005.4 hPa | 0 mm | 0.89 m/s, 161° | 418 W/m² | - |
| 1778001919 | 27.22° C | 72% | 1005.5 hPa | 0 mm | 0.45 m/s, 287° | 384 W/m² | - |
| 1778001615 | 26.67° C | 72% | 1005.3 hPa | 0 mm | 1.34 m/s, 314° | 387 W/m² | - |
| 1778001310 | 26.67° C | 71% | 1005.4 hPa | 0 mm | 4.47 m/s, 173° | 345 W/m² | - |
| 1778001008 | 26.67° C | 73% | 1005.3 hPa | 0 mm | 0.89 m/s, 128° | 357 W/m² | - |
| 1778000704 | 26.67° C | 73% | 1005.3 hPa | 0 mm | 2.24 m/s, 199° | 329 W/m² | - |
| 1778000400 | 26.11° C | 75% | 1005.3 hPa | 0 mm | 3.13 m/s, 167° | 319 W/m² | - |
| 1778000096 | 26.11° C | 76% | 1005.2 hPa | 0 mm | 3.13 m/s, 198° | 256 W/m² | - |
| 1777999791 | 25.56° C | 76% | 1005.4 hPa | 0 mm | 1.79 m/s, 169° | 198 W/m² | - |
| 1777999488 | 25.56° C | 76% | 1005.4 hPa | 0 mm | 2.68 m/s, 224° | 209 W/m² | - |
| 1777999186 | 25.56° C | 76% | 1005.4 hPa | 0 mm | 2.24 m/s, 199° | 157 W/m² | - |
| 1777998885 | 25.56° C | 76% | 1005.4 hPa | 0 mm | 2.24 m/s, 260° | 340 W/m² | - |
| 1777998584 | 25.56° C | 76% | 1005.3 hPa | 0 mm | 0.89 m/s, 198° | 246 W/m² | - |
| 1777998279 | 25° C | 76% | 1005.3 hPa | 0 mm | 2.24 m/s, 206° | 291 W/m² | - |
| 1777997976 | 25° C | 77% | 1005.2 hPa | 0 mm | 2.24 m/s, 190° | 235 W/m² | - |
| 1777997672 | 25° C | 77% | 1005.1 hPa | 0 mm | 2.24 m/s, 143° | 207 W/m² | - |
| 1777997370 | 25° C | 77% | 1005.3 hPa | 0 mm | 2.24 m/s, 168° | 202 W/m² | - |
| 1777997068 | 25° C | 77% | 1005.1 hPa | 0 mm | 2.24 m/s, 210° | 208 W/m² | - |
| 1777996764 | 25° C | 78% | 1005 hPa | 0 mm | 1.34 m/s, 172° | 233 W/m² | - |
| 1777996461 | 25° C | 78% | 1004.9 hPa | 0 mm | 1.79 m/s, 177° | 249 W/m² | - |
| 1777996158 | 25° C | 78% | 1004.9 hPa | 0 mm | 2.24 m/s, 106° | 196 W/m² | - |
| 1777995854 | 25° C | 78% | 1005.1 hPa | 0 mm | 3.13 m/s, 159° | 209 W/m² | - |
| 1777995550 | 25° C | 77% | 1005 hPa | 0 mm | 3.13 m/s, 172° | 229 W/m² | - |
| 1777995247 | 25° C | 77% | 1005.2 hPa | 0 mm | 4.02 m/s, 148° | 290 W/m² | - |
* Rain latest hour (hover to see other rain measurements)
** Current wind speed in m/s (hover to see current wind gust speed)